Content
SEND FEEDBACK

Daily
Averages
Monthly
Summary
United States of America

COOKVILLE, KANSAS


Home > North America > United States > Kansas
Elevation: 759 feet     Latitude: 37 05N     Longitude: 095 34W

WEATHER
 
SELECT A DAY
Number of Records: 177,929;   Date Range: 7/1/96 - 7/23/14
 
SHARE

PRINT THIS DATA

[ ← Previous Day ]
WEATHER ALMANAC - FEBRUARY 13, 2013
[ Next Day → ]
[ °C ]   °F
Weather ElementAverageHighLow
Temperature36.6 °F54 °F (3:52 pm)30 °F (5:52 am)
Dewpoint30.4 °F36 °F (12:52 pm)27 °F (5:52 pm)
Humidity81.6 %100 % (12:52 am)38 % (4:52 pm)
Barometer29.99 in30.04 in (9:52 am)29.92 in (5:52 pm)
Wind Speed6.4 mph12.7 mph (3:52 pm)
Weather ElementAverage
Visibility6 mi
Wind DirectionSSW (198.5 °)

Weather ElementTotal
Precipitation---
Heating Degree Days23 (Base 65)
Averaged from 41 records on February 13, 2013
WEATHER CONDITIONS BREAKOUT
WIND DIRECTION BREAKOUT
WEATHER BY HOUR - FEBRUARY 13, 2013
[ °C ]   °F
Local TimeTemperatureDewpointHumidityBarometerVisibilityWind DirectionWind SpeedGust SpeedPrecipitationEventsConditions
12:17 AM33.8 °F32.0 °F93 %30.01 in4.0 miCalm0.00 inOvercast
12:42 AM33.8 °F32.0 °F93 %30.01 in4.0 miCalm0.00 inOvercast
12:52 AM33.1 °F33.1 °F100 %30.03 in4.0 miCalm0.00 inOvercast
1:52 AM33.1 °F32.0 °F96 %30.02 in3.0 miCalmMostly Cloudy
2:05 AM33.8 °F30.2 °F87 %30.01 in2.5 miCalmScattered Clouds
2:39 AM32.0 °F32.0 °F100 %30.00 in3.0 miCalmClear
2:52 AM32.0 °F32.0 °F100 %30.01 in2.5 miWest (260°)3.5 mphClear
3:14 AM30.2 °F30.2 °F100 %30.00 in4.0 miWest (270°)6.9 mphClear
3:34 AM30.2 °F30.2 °F100 %30.00 in2.5 miWSW (240°)3.5 mphPartly Cloudy
3:41 AM30.2 °F30.2 °F100 %29.99 in1.0 miWSW (250°)3.5 mphMist
3:52 AM32.0 °F30.0 °F92 %30.01 in2.0 miWSW (250°)5.8 mphMostly Cloudy
4:02 AM32.0 °F30.2 °F93 %29.99 in1.2 miWSW (240°)6.9 mphOvercast
4:16 AM32.0 °F30.2 °F93 %29.99 in0.8 miWSW (240°)8.1 mphOvercast
4:23 AM32.0 °F30.2 °F93 %29.98 in1.0 miSW (230°)5.8 mphMist
4:40 AM30.2 °F30.2 °F100 %29.98 in0.8 miSSW (200°)4.6 mphMist
4:52 AM30.9 °F30.9 °F100 %30.00 in0.5 miSSW (200°)4.6 mphFogLight Freezing Fog
5:18 AM30.2 °F28.4 °F93 %29.98 in2.0 miSSW (200°)6.9 mphMostly Cloudy
5:22 AM30.2 °F28.4 °F93 %29.97 in5.0 miSSW (200°)6.9 mphScattered Clouds
5:52 AM30.0 °F28.0 °F92 %30.00 in2.5 miSouth (180°)4.6 mphClear
6:00 AM30.2 °F28.4 °F93 %29.98 in5.0 miSSW (200°)4.6 mphClear
6:49 AM30.2 °F28.4 °F93 %29.99 in10.0 miWSW (250°)6.9 mphScattered Clouds
6:52 AM30.9 °F28.9 °F92 %30.01 in10.0 miWSW (250°)6.9 mphScattered Clouds
7:00 AM30.2 °F28.4 °F93 %29.99 in10.0 miWest (260°)5.8 mphMostly Cloudy
7:52 AM30.9 °F30.0 °F96 %30.03 in7.0 miWSW (250°)8.1 mphOvercast
8:52 AM32.0 °F30.0 °F92 %30.03 in6.0 miWSW (240°)10.4 mphOvercast
9:52 AM33.1 °F30.9 °F92 %30.04 in7.0 miWSW (240°)9.2 mphMostly Cloudy
9:59 AM33.8 °F30.2 °F87 %30.01 in7.0 miSW (230°)8.1 mphPartly Cloudy
10:52 AM36.0 °F33.1 °F89 %30.03 in8.0 miSW (230°)8.1 mphPartly Cloudy
11:52 AM41.0 °F35.1 °F79 %30.03 in10.0 miSW (230°)9.2 mphClear
12:52 PM46.0 °F36.0 °F68 %29.99 in10.0 miSW (230°)9.2 mphClear
1:52 PM48.9 °F34.0 °F56 %29.97 in10.0 miWSW (240°)8.1 mphClear
2:52 PM52.0 °F33.1 °F49 %29.94 in10.0 miSW (230°)11.5 mphClear
3:52 PM54.0 °F30.0 °F40 %29.93 in10.0 miWSW (240°)12.7 mphClear
4:52 PM54.0 °F28.9 °F38 %29.93 in10.0 miWSW (250°)10.4 mphClear
5:52 PM50.0 °F27.0 °F41 %29.92 in10.0 miSW (230°)8.1 mphClear
6:52 PM48.0 °F28.0 °F46 %29.93 in10.0 miSW (230°)10.4 mphClear
7:52 PM45.0 °F28.9 °F53 %29.94 in10.0 miSW (230°)8.1 mphClear
8:52 PM46.0 °F30.9 °F56 %29.94 in10.0 miSW (230°)11.5 mphClear
9:52 PM44.1 °F30.0 °F58 %29.94 in10.0 miSW (230°)10.4 mphClear
10:52 PM43.0 °F28.9 °F58 %29.95 in10.0 miSW (230°)9.2 mphClear
11:52 PM41.0 °F28.0 °F60 %29.95 in10.0 miSW (230°)5.8 mphClear
Hourly data recorded from KCFV, located miles away from Cookville, Kansas







STORIES FROM OUR PARTNERS